Regional Weather Roundup
Issued by NWS Huntsville, AL

Home | Current Version | Previous Version | Text Only | Print | Product List | Glossary On
Versions: 1 2 3 4 5 6 7 8 9 10 11 12 13 14 15 16 17 18 19 20 21 22 23 24 25 26 27 28 29 30 31 32 33 34 35 36 37 38 39 40 41 42 43 44
000
ASUS44 KHUN 261710
RWRHUN

WEATHER ROUNDUP FOR THE TENNESSEE VALLEY
NATIONAL WEATHER SERVICE HUNTSVILLE AL
1100 AM CST FRI DEC 26 2014

ALZ001>004-261800-
NORTHWEST ALABAMA

CITY           SKY/WX    TMP DP  RH WIND       PRES   REMARKS
COURTLAND HCN    N/A     46 N/A N/A CALM        N/A
RUSSELLVILLE     N/A     46 N/A N/A MISG        N/A
SHOALS AIRPORT CLOUDY    47  39  74 CALM      30.33F
SHOALS TVA RES   N/A     45 N/A N/A MISG        N/A
$$

ALZ005>007-016-261800-
NORTH CENTRAL ALABAMA

CITY           SKY/WX    TMP DP  RH WIND       PRES   REMARKS
CULLMAN AG STN   N/A     46 N/A N/A CALM        N/A
DECATUR AP     CLOUDY    46  40  79 E7        30.33F
HUNTSVILLE AP  CLOUDY    49  41  74 SE9       30.33F
HUN NWS/UAH      N/A     48  39  71 SE5         N/A
MERIDIANVILLE  CLOUDY    45  34  65 SE5       30.34F
REDSTONE ARSN  CLOUDY    48  41  76 SE8       30.33F
VINEMONT AP    FAIR      47  38  70 SE6       30.34F
$$

ALZ008>010-261800-
NORTHEAST ALABAMA

CITY           SKY/WX    TMP DP  RH WIND       PRES   REMARKS
ALBERTVILLE    PTSUNNY   48  43  81 CALM      30.34S
FORT PAYNE     PTSUNNY   48  34  57 CALM      30.34F
SCOTTSBORO AP  PTSUNNY   37  37 100 CALM      30.38F
VALLEY HEAD      N/A     46 N/A N/A MISG        N/A
$$

TNZ076-096-097-261800-
SOUTHEASTERN MIDDLE TENNESSEE

CITY           SKY/WX    TMP DP  RH WIND       PRES   REMARKS
TULLAHOMA      SUNNY     46  37  71 S7        30.34S
WINCHESTER     SUNNY     48  37  66 S3        30.35S
$$

...SURROUNDING SITES...

CITY           SKY/WX    TMP DP  RH WIND       PRES   REMARKS
ATLANTA        MOSUNNY   52  36  54 NW3       30.35S
ANNISTON       MOSUNNY   52  37  56 CALM      30.35F
BIRMINGHAM     PTSUNNY   51  37  58 CALM      30.36F
CHATTANOOGA    CLOUDY    38  37  97 CALM      30.38F FOG
CORINTH        FAIR      50  39  66 S10       30.28F
DALTON         SUNNY     45  41  87 CALM      30.36F
GADSDEN        MOSUNNY   45  37  76 CALM      30.37F
GOLDEN TRNGL   PTSUNNY   48  39  71 SE9       30.31F
HALEYVILLE     FAIR      44  39  82 SE3       30.33F
JACKSON TN     CLOUDY    50  37  61 S7G16     30.26F
LEWISBURG      FAIR      50  38  63 S9        30.32F
MEMPHIS        CLOUDY    55  38  52 S10       30.24F
MURFREESBORO   FAIR      51  39  63 S8        30.31F
NASHVILLE      MOSUNNY   52  38  58 S10       30.30F
OXFORD MS      FAIR      45  37  76 SE8       30.28F
ROME           SUNNY     48  38  68 CALM      30.37F
SAVANNAH       SUNNY     48  37  66 S12       30.29F
TUPELO         CLOUDY    47  40  76 MISG      30.30F
TUSCALOOSA     PTSUNNY   51  39  63 CALM      30.35S
$$

...GULF COAST WEATHER...

CITY           SKY/WX    TMP DP  RH WIND       PRES   REMARKS
GULFPORT       SUNNY     62  50  64 E9        30.25F
PASCAGOULA     MOSUNNY   60  49  66 N7        30.27F
MOBILE         PTSUNNY   56  46  69 NE7       30.28F
GULF SHORES    MOSUNNY   63  53  70 E8        30.27F
PENSACOLA      PTSUNNY   59  49  69 NE12      30.27F
DESTIN         MOSUNNY   58  46  64 NE5       30.30F
PANAMA CITY    SUNNY     59  56  91 VRB6      30.29F
APPALACHICOLA  MOSUNNY   64  48  56 E8        30.28S
$$



USA.gov is the U.S. government's official web portal to all federal, state and local government web resources and services.